Starlink 5964

operational
NORAD ID: 56009 Int'l Des: 2023-042 Owner: SPXS Country: US Constellation: starlink
LEOCIRCULAR

About Starlink 5964

Description loading...

Live Position

Loading 3D Globe...

Upcoming Passes

Altitude History

Altitude vs Time

uPlot chart will show altitude changes over time

Two-Line Element Set

1 56009U 23042Z 26049.60320785 .00000150 00000-0 26205-4 0 9998
2 56009 43.0021 159.4454 0001457 271.4848 88.5827 15.02531356160045
Epoch: Feb 18, 2026 • Age: 10 hours

Current Status

Altitude 562.6 km
Velocity 7.59 km/s
Sub-Earth Point 40.21°N, 115.82°E
Launch Date Mar 24, 2023
Age 2.9 years
Type internet

Technical Details

Classification Payload
Mass 305.00 kg
Dry Mass 290.00 kg
Total Mass 305.00 kg
Length 0.20 m
Diameter 2.80 m
Span 9.00 m
Shape Box + pan
Manufacturer SPXS
Bus Type Starlink
Phase Status In Orbit
Owner/State SPXS/US

Large Constellations

Loading constellations...